CZ-6A DEB, 60812

Orbit data source: Space-Track

CZ-6A DEB, 60812 is space debris in LEO originally from a launch on Tue, 06 Aug 2024 UTC launched from the Taiyaun Space Center, China (TSC). Debris objects in space refer to the collection of defunct objects orbiting the Earth. Examples of debris include non-operational satellites, rocket bodies, and fragments generated from explosions, collisions, or faulty payload assembly.

Loading next visibility...
Identifier
60812, 2024-140GP
Orbit
LEO
Country
Flag of CNCN / PRC
Related business
Manufacturer
SAST
Mission
Spacecraft
Bus & Motor
Unknown
Mass
Unknown
Launch date (UTC)
2024-08-06 (2 years ago)
Launch vehicle
Unknown
Launch site
Taiyaun Space Center, China (TSC)
Object type
Payload
Rocket body
Debris
Shape & HBR
Unknown shape, 0.2 m
Radar Cross Section
Medium (>0.1 m² and <1 m²)

Expand to show TLE details & history
Last TLE update: 13 hours ago

TLE from 13 hours ago
0 CZ-6A DEB
1 60812U 24140GP  26171.31337325  .00000475  00000-0  12261-3 0  9993
2 60812  88.9811 269.2750 0085516 294.2630  64.9658 14.46282224 97881
Epoch: 2026-06-20T07:31Z
TLE epoch observation values (Epoch: 2026-06-20T07:31:15.448Z)
Latitude
-0.00006°
Longitude
-112.06915°
Altitude
715.582 km
Speed
7.511 km/s
True Right ascension
17h 57m 05s
True Declination
0° 00' 00"
Sunlit
Object was in full shadow at epoch
Visualization orbit readout
Latitude
Unknown
Longitude
Unknown
Altitude
Unknown
Speed
Unknown
Apparent Right ascension
Unknown
Apparent Declination
Unknown
Sunlit
N/A
Visualization observer readout
Local Sidereal Time
07:22:54
Azimuth
Unknown
Elevation
Unknown
Doppler factor
Unknown
Orbital elements
Apogee altitude
795.557 km
Perigee altitude
673.904 km
Semi-major axis
7,112.868 km
Eccentricity
0.00855
Inclination
88.9811°
RAAN
269.275°
Arg. of periapsis
294.263°
True anomaly
65.85768°
Mean anomaly
64.9658°
Eccentric anomaly
65.41134°
Mean motion
3.61806 °/min
Orbital period
99.5 mins
BSTAR
0.00012261
Loading maneuver chart data...
Computing Atmospheric mass density...
Loading historical data...
Loading historical data...
Loading historical data...
Loading historical data...
Loading historical data...
Loading historical data...
Loading historical data...

Documentation

Showing up to 5 results
|